This is the latest recevied weather packets stored in our database for station/object WB5RFA. If no packets are shown the sender has not sent any weather packets the latest 10 day(s).
| Time | Temp. | Humidity | Pressure | Rain* | Wind** | Luminosity | Snow |
|---|---|---|---|---|---|---|---|
| 1778080631 | 13.33° C | 45% | 1017.7 hPa | 0 mm | - | - | - |
| 1778080153 | 12.78° C | 46% | 1017.7 hPa | 0 mm | - | - | - |
| 1778079671 | 12.22° C | 51% | 1017.8 hPa | 0 mm | - | - | - |
| 1778079191 | 12.22° C | 51% | 1017.8 hPa | 0 mm | - | - | - |
| 1778078712 | 11.67° C | 54% | 1017.8 hPa | 0 mm | - | - | - |
| 1778078232 | 12.22° C | 54% | 1017.9 hPa | 0 mm | - | - | - |
| 1778077751 | 12.22° C | 58% | 1017.8 hPa | 0 mm | - | - | - |
| 1778077272 | 11.67° C | 59% | 1017.8 hPa | 0 mm | - | - | - |
| 1778076792 | 11.67° C | 60% | 1017.8 hPa | 0 mm | - | - | - |
| 1778076313 | 11.11° C | 58% | 1017.5 hPa | 0 mm | - | - | - |
| 1778075831 | 11.11° C | 62% | 1017.4 hPa | 0 mm | - | - | - |
| 1778075353 | 10.56° C | 63% | 1017.3 hPa | 0 mm | - | - | - |
| 1778074872 | 10° C | 61% | 1017.2 hPa | 0 mm | - | - | - |
| 1778074392 | 10° C | 65% | 1017.2 hPa | 0 mm | - | - | - |
| 1778073911 | 10° C | 68% | 1017.2 hPa | 0 mm | - | - | - |
| 1778073432 | 9.44° C | 71% | 1017.1 hPa | 0 mm | - | - | - |
| 1778072951 | 8.89° C | 74% | 1016.8 hPa | 0 mm | - | - | - |
| 1778072472 | 8.89° C | 77% | 1016.7 hPa | 0 mm | - | - | - |
| 1778071992 | 8.33° C | 80% | 1016.6 hPa | 0 mm | - | - | - |
| 1778071513 | 8.33° C | 83% | 1016.6 hPa | 0 mm | - | - | - |
| 1778071032 | 7.78° C | 83% | 1016.4 hPa | 0 mm | - | - | - |
| 1778070551 | 7.78° C | 83% | 1016.2 hPa | 0 mm | - | - | - |
| 1778070072 | 7.78° C | 83% | 1016.1 hPa | 0 mm | - | - | - |
| 1778069591 | 7.78° C | 83% | 1015.8 hPa | 0 mm | - | - | - |
| 1778069113 | 7.78° C | 83% | 1015.7 hPa | 0 mm | - | - | - |
* Rain latest hour (hover to see other rain measurements)
** Current wind speed in m/s (hover to see current wind gust speed)